• In Germany
  • List of Countries
  • For 7 days
  • Water Temperature
  • Satellite Maps
  • Weather Map
  • Weather Widgets
  • user-avatar
    Login

    Hourly Weather Lisburn

    Today, 22 November, Wednesday

    Time Temperature Precipitation Wind Pressure Humidity
    00:00 +9°C° 0 mm 7 mps 741 mmHg 91%
    01:00 +9°C° 0.2 mm 6 mps 741 mmHg 92%
    02:00 +9°C° 0.2 mm 5 mps 740 mmHg 93%
    03:00 +9°C° 0.2 mm 5 mps 740 mmHg 93%
    04:00 +8°C° 1.3 mm 4 mps 739 mmHg 94%
    05:00 +9°C° 1.3 mm 3 mps 738 mmHg 95%
    06:00 +8°C° 0 mm 3 mps 738 mmHg 93%
    07:00 +7°C° 2.4 mm 3 mps 737 mmHg 94%
    08:00 +7°C° 2.4 mm 3 mps 736 mmHg 94%
    09:00 +7°C° 2.4 mm 3 mps 735 mmHg 95%
    10:00 +7°C° 1.5 mm 3 mps 735 mmHg 94%
    11:00 +7°C° 1.5 mm 3 mps 734 mmHg 94%
    12:00 +7°C° 1.5 mm 3 mps 733 mmHg 93%
    13:00 +7°C° 0.3 mm 3 mps 733 mmHg 92%
    14:00 +7°C° 0.3 mm 3 mps 733 mmHg 91%
    15:00 +7°C° 0.3 mm 3 mps 733 mmHg 90%
    16:00 +5°C° 0.1 mm 3 mps 732 mmHg 91%
    17:00 +5°C° 0.1 mm 3 mps 732 mmHg 91%
    18:00 +6°C° 0.1 mm 2 mps 732 mmHg 91%
    19:00 +6°C° 0.1 mm 2 mps 732 mmHg 91%
    20:00 +5°C° 0.1 mm 2 mps 731 mmHg 91%
    21:00 +6°C° 0.1 mm 1 mps 731 mmHg 91%
    22:00 +5°C° 0.3 mm 2 mps 731 mmHg 91%
    23:00 +5°C° 0.3 mm 2 mps 730 mmHg 90%

    Tomorrow, 23 November, Thursday

    Time Temperature Precipitation Wind Pressure Humidity
    00:00 +4°C° 0.3 mm 3 mps 730 mmHg 89%
    01:00 +3°C° 0.4 mm 4 mps 730 mmHg 88%
    02:00 +2°C° 0.4 mm 5 mps 729 mmHg 87%
    03:00 +2°C° 0.4 mm 6 mps 729 mmHg 86%
    04:00 +2°C° 0 mm 7 mps 729 mmHg 86%
    05:00 +2°C° 0 mm 7 mps 729 mmHg 86%
    06:00 +1°C° 0 mm 8 mps 729 mmHg 87%
    07:00 +1°C° 0.1 mm 8 mps 730 mmHg 87%
    08:00 +2°C° 0.1 mm 9 mps 731 mmHg 87%
    09:00 +2°C° 0.1 mm 9 mps 732 mmHg 87%
    10:00 +3°C° 0 mm 9 mps 734 mmHg 83%
    11:00 +3°C° 0 mm 10 mps 736 mmHg 79%
    12:00 +5°C° 0 mm 10 mps 738 mmHg 75%
    13:00 +3°C° 0.2 mm 9 mps 739 mmHg 76%
    14:00 +4°C° 0.2 mm 8 mps 740 mmHg 77%
    15:00 +2°C° 0.2 mm 8 mps 741 mmHg 78%
    16:00 +3°C° 0.2 mm 7 mps 743 mmHg 79%
    17:00 +2°C° 0.2 mm 6 mps 744 mmHg 81%
    18:00 +1°C° 0.2 mm 5 mps 745 mmHg 83%
    19:00 +1°C° 0.1 mm 5 mps 745 mmHg 84%
    20:00 +1°C° 0.1 mm 5 mps 746 mmHg 85%
    21:00 0°C° 0.1 mm 5 mps 747 mmHg 86%
    22:00 0°C° 0 mm 5 mps 747 mmHg 86%
    23:00 0°C° 0 mm 4 mps 748 mmHg 86%

    Day after tomorrow, 24 November, Friday

    Time Temperature Precipitation Wind Pressure Humidity
    00:00 0°C° 0 mm 4 mps 748 mmHg 86%
    01:00 0°C° 0 mm 4 mps 748 mmHg 86%
    02:00 -1°C° 0 mm 4 mps 749 mmHg 86%
    03:00 -1°C° 0 mm 4 mps 749 mmHg 86%
    04:00 -1°C° 0 mm 4 mps 750 mmHg 86%
    05:00 -1°C° 0 mm 4 mps 750 mmHg 86%
    06:00 -1°C° 0 mm 4 mps 750 mmHg 87%
    07:00 -1°C° 0 mm 4 mps 750 mmHg 87%
    08:00 -1°C° 0 mm 4 mps 751 mmHg 87%
    09:00 -1°C° 0 mm 4 mps 751 mmHg 87%
    10:00 0°C° 0 mm 5 mps 751 mmHg 82%
    11:00 +1°C° 0 mm 5 mps 752 mmHg 77%
    12:00 +2°C° 0 mm 6 mps 752 mmHg 72%
    13:00 +2°C° 0 mm 6 mps 752 mmHg 71%
    14:00 +2°C° 0 mm 6 mps 752 mmHg 71%
    15:00 +2°C° 0 mm 6 mps 752 mmHg 70%
    16:00 +1°C° 0 mm 6 mps 752 mmHg 72%
    17:00 -1°C° 0 mm 6 mps 752 mmHg 73%
    18:00 -1°C° 0 mm 6 mps 752 mmHg 75%
    19:00 -1°C° 0 mm 6 mps 752 mmHg 76%
    20:00 -1°C° 0 mm 6 mps 753 mmHg 76%
    21:00 -2°C° 0 mm 6 mps 753 mmHg 77%
    22:00 -1°C° 0 mm 7 mps 753 mmHg 76%
    23:00 -1°C° 0 mm 7 mps 753 mmHg 76%

    25 November, Saturday

    Time Temperature Precipitation Wind Pressure Humidity
    00:00 -1°C° 0 mm 7 mps 753 mmHg 75%
    01:00 -1°C° 0.1 mm 8 mps 753 mmHg 74%
    02:00 -1°C° 0.1 mm 8 mps 753 mmHg 74%
    03:00 -1°C° 0.1 mm 8 mps 753 mmHg 74%
    04:00 -1°C° 0.2 mm 8 mps 753 mmHg 74%
    05:00 0°C° 0.2 mm 8 mps 753 mmHg 74%
    06:00 0°C° 0.2 mm 9 mps 753 mmHg 74%
    07:00 0°C° 0.1 mm 8 mps 754 mmHg 74%
    08:00 -1°C° 0.1 mm 8 mps 754 mmHg 74%
    09:00 -1°C° 0.1 mm 8 mps 755 mmHg 75%
    10:00 0°C° 0 mm 8 mps 755 mmHg 72%
    11:00 +1°C° 0 mm 8 mps 756 mmHg 70%
    12:00 +1°C° 0 mm 8 mps 756 mmHg 68%
    13:00 +1°C° 0 mm 8 mps 756 mmHg 69%
    14:00 +1°C° 0 mm 8 mps 756 mmHg 70%
    15:00 +1°C° 0 mm 8 mps 756 mmHg 70%
    16:00 +1°C° 0.1 mm 9 mps 756 mmHg 72%
    17:00 +1°C° 0.1 mm 9 mps 756 mmHg 74%
    18:00 0°C° 0.1 mm 9 mps 756 mmHg 76%
    19:00 +1°C° 0.1 mm 9 mps 757 mmHg 77%
    20:00 +1°C° 0.1 mm 9 mps 757 mmHg 77%
    21:00 +2°C° 0.1 mm 10 mps 758 mmHg 78%
    22:00 +2°C° 0.1 mm 9 mps 758 mmHg 79%
    23:00 +2°C° 0.1 mm 9 mps 758 mmHg 80%

    26 November, Sunday

    Time Temperature Precipitation Wind Pressure Humidity
    00:00 +2°C° 0.1 mm 9 mps 759 mmHg 81%
    01:00 +2°C° 0.1 mm 9 mps 759 mmHg 81%
    02:00 +2°C° 0.1 mm 9 mps 760 mmHg 82%
    03:00 +2°C° 0.1 mm 9 mps 760 mmHg 82%
    04:00 +2°C° 0.1 mm 8 mps 760 mmHg 82%
    05:00 +1°C° 0.1 mm 8 mps 761 mmHg 83%
    06:00 +1°C° 0.1 mm 8 mps 761 mmHg 83%
    07:00 +1°C° 0.1 mm 8 mps 762 mmHg 82%
    08:00 +1°C° 0.1 mm 8 mps 762 mmHg 81%
    09:00 +1°C° 0.1 mm 8 mps 763 mmHg 80%
    10:00 +2°C° 0 mm 8 mps 763 mmHg 78%
    11:00 +4°C° 0 mm 8 mps 763 mmHg 76%
    12:00 +4°C° 0 mm 8 mps 763 mmHg 73%
    13:00 +4°C° 0 mm 7 mps 763 mmHg 76%
    14:00 +4°C° 0 mm 7 mps 763 mmHg 78%
    15:00 +4°C° 0 mm 6 mps 763 mmHg 80%
    16:00 +4°C° 0.1 mm 7 mps 763 mmHg 83%
    17:00 +4°C° 0.1 mm 7 mps 762 mmHg 85%
    18:00 +5°C° 0.1 mm 8 mps 762 mmHg 88%
    19:00 +5°C° 0 mm 8 mps 761 mmHg 87%
    20:00 +5°C° 0 mm 9 mps 760 mmHg 86%
    21:00 +5°C° 0 mm 9 mps 759 mmHg 85%
    22:00 +5°C° 0.3 mm 10 mps 759 mmHg 85%
    23:00 +6°C° 0.3 mm 11 mps 758 mmHg 85%

    27 November, Monday

    Time Temperature Precipitation Wind Pressure Humidity
    00:00 +6°C° 0.3 mm 11 mps 757 mmHg 85%
    01:00 +6°C° 0.9 mm 10 mps 756 mmHg 86%
    02:00 +5°C° 0.9 mm 9 mps 756 mmHg 87%
    03:00 +5°C° 0.9 mm 8 mps 755 mmHg 88%
    04:00 +5°C° 0.6 mm 8 mps 754 mmHg 89%
    05:00 +4°C° 0.6 mm 8 mps 754 mmHg 89%
    06:00 +4°C° 0.6 mm 7 mps 753 mmHg 89%
    07:00 +4°C° 0.8 mm 7 mps 753 mmHg 88%
    08:00 +3°C° 0.8 mm 7 mps 753 mmHg 86%
    09:00 +3°C° 0.8 mm 7 mps 753 mmHg 85%
    10:00 +2°C° 0.1 mm 8 mps 753 mmHg 81%
    11:00 +4°C° 0.1 mm 8 mps 753 mmHg 77%
    12:00 +3°C° 0.1 mm 9 mps 753 mmHg 73%
    13:00 +3°C° 0.1 mm 9 mps 753 mmHg 74%
    14:00 +3°C° 0.1 mm 9 mps 753 mmHg 74%
    15:00 +3°C° 0.1 mm 9 mps 753 mmHg 75%
    16:00 +3°C° 0.1 mm 9 mps 754 mmHg 76%
    17:00 +2°C° 0.1 mm 9 mps 754 mmHg 77%
    18:00 +2°C° 0.1 mm 8 mps 755 mmHg 78%
    19:00 +1°C° 0.1 mm 8 mps 756 mmHg 79%
    20:00 +2°C° 0.1 mm 7 mps 756 mmHg 79%
    21:00 +2°C° 0.1 mm 7 mps 757 mmHg 80%
    22:00 +2°C° 0.1 mm 7 mps 757 mmHg 80%
    23:00 +2°C° 0.1 mm 7 mps 757 mmHg 81%
    Show more